Location: ČR
(50.0000°N, 15.0000°E)
Time: 15:42:03
(UTC+01:00)

Courier 1B - Pass Details

Date: 14 February 2026
Orbit: 962 x 1208 km, 28.3° (Epoch: 16 March)

Event Time Altitude Azimuth Distance (km) Brightness Sun altitude
Rises 00:24:11 0° 238° (WSW) 4,101 - -53.0°
Reaches altitude 10° 00:29:11 10° 212° (SSW) 3,139 - -53.0°
Maximum altitude 00:32:05 12° 190° (S) 2,951 - -52.9°
Drops below altitude 10° 00:34:58 10° 167° (SSE) 3,120 - -52.8°
Sets 00:39:54 0° 141° (SE) 4,048 - -52.7°
